Date_and_time,latitude,longitude,wind_speed,RelWindDirFrom,WindDirFrom,air_pressure,air_temperature,relative_humidity,Temp,platform_speed_wrt_ground,air_pressure_at_mean_sea_level,platform_orientation
2018-09-17 23:50,50.6304483333333,-96.98077,4.6,7.0,25,991.78,10.2,77,14.22,0.0,1018.73,90.0
2018-09-18 00:00,50.6304483333333,-96.98077,4.2,6.5,20,991.75,10.3,76,14.20,0.0,1018.71,360.0
2018-09-18 00:10,50.63045,-96.98077,4.7,7.3,26,991.68,10.3,76,14.22,0.0,1018.63,360.0
2018-09-18 00:20,50.63045,-96.9807683333333,4.4,6.8,26,991.60,10.4,76,14.27,0.0,1018.55,360.0
2018-09-18 00:30,50.6304483333333,-96.9807683333333,4.1,6.6,26,991.54,10.4,77,14.28,0.0,1018.49,360.0
2018-09-18 00:40,50.6304483333333,-96.9807683333333,4.4,6.2,38,991.61,10.5,76,14.26,0.0,1018.55,360.0
2018-09-18 00:50,50.6304483333333,-96.9807666666667,4.0,6.3,39,991.40,10.5,76,14.25,0.0,1018.34,360.0
2018-09-18 01:00,50.6304483333333,-96.9807666666667,5.0,7.4,55,991.29,10.7,76,14.25,0.0,1018.22,360.0
2018-09-18 01:10,50.6304083333333,-96.980775,3.6,6.1,55,991.44,10.8,76,14.26,0.0,1018.36,360.0
2018-09-18 01:20,50.63044,-96.9807633333333,4.4,6.0,44,991.46,10.9,77,14.27,0.0,1018.38,360.0
2018-09-18 01:30,50.6304433333333,-96.980765,4.8,6.5,52,991.34,11.0,77,14.26,0.0,1018.25,360.0
2018-09-18 01:40,50.6304466666667,-96.980765,4.6,6.2,48,991.28,11.1,77,14.23,0.0,1018.18,360.0
2018-09-18 01:50,50.630445,-96.9807633333333,3.2,6.9,60,991.47,11.2,75,14.21,0.0,1018.36,360.0
2018-09-18 02:00,50.630445,-96.9807633333333,1.7,2.8,59,991.60,11.3,75,14.21,0.0,1018.50,0.0
2018-09-18 02:10,50.630445,-96.9807616666667,1.5,3.5,183,991.49,10.9,79,14.22,0.0,1018.39,0.0
2018-09-18 02:20,50.6304433333333,-96.9807616666667,3.1,5.3,189,991.24,10.0,88,14.23,0.0,1018.18,0.0
2018-09-18 02:30,50.6304433333333,-96.9807616666667,4.2,5.8,194,991.14,10.0,90,14.22,0.0,1018.07,0.0
2018-09-18 02:40,50.6304433333333,-96.9807616666667,3.8,5.4,261,991.40,9.7,91,14.21,0.0,1018.36,0.0
2018-09-18 02:50,50.6304416666667,-96.9807616666667,1.9,3.1,222,991.19,9.3,95,14.22,0.0,1018.15,0.0
2018-09-18 03:00,50.6304366666667,-96.9807566666667,1.6,2.7,219,990.97,9.2,96,14.22,0.0,1017.93,165.5
2018-09-18 03:10,50.630435,-96.9807633333333,3.0,6.1,244,990.96,9.2,96,14.21,0.0,1017.91,165.5
2018-09-18 03:20,50.630435,-96.980765,5.5,7.0,278,991.34,9.1,98,14.20,0.0,1018.30,165.5
2018-09-18 03:30,50.6304316666667,-96.980765,5.2,7.2,287,991.49,8.9,99,14.21,0.0,1018.45,165.5
2018-09-18 03:40,50.6304316666667,-96.9807666666667,4.9,6.4,289,991.50,8.9,99,14.22,0.0,1018.47,165.5
2018-09-18 03:50,50.6304583333333,-96.9807666666667,3.6,5.1,288,991.35,8.9,99,14.20,0.0,1018.30,165.5
2018-09-18 04:00,50.6304533333333,-96.9807783333333,1.6,2.9,270,991.15,8.9,99,14.18,0.0,1018.12,291.5
2018-09-18 04:10,50.6304516666667,-96.9807816666667,3.6,6.9,281,991.28,8.9,99,14.18,0.0,1018.29,291.5
2018-09-18 04:20,50.6304416666667,-96.9807633333333,5.6,8.0,279,991.48,8.7,99,14.19,0.0,1018.51,291.5
2018-09-18 04:30,50.6304416666667,-96.9807683333333,5.3,7.2,274,991.61,8.5,99,14.19,0.0,1018.67,291.5
2018-09-18 04:40,50.6304416666667,-96.9807516666667,4.1,6.3,263,991.55,8.4,99,14.19,0.0,1018.63,291.5
2018-09-18 04:50,50.6304383333333,-96.98077,3.2,4.6,243,991.40,8.3,99,14.18,0.0,1018.49,291.5
2018-09-18 05:00,50.6304466666667,-96.9807683333333,2.5,3.8,246,991.34,8.3,99,14.18,0.0,1018.42,360.0
2018-09-18 05:10,50.63044,-96.9807333333333,2.1,3.8,240,991.29,8.3,99,14.18,0.0,1018.38,360.0
2018-09-18 05:20,50.6304433333333,-96.980755,3.6,5.1,255,991.40,8.3,99,14.17,0.0,1018.50,360.0
2018-09-18 05:30,50.630425,-96.9807783333333,4.5,5.8,261,991.52,8.3,99,14.16,0.0,1018.62,360.0
2018-09-18 05:40,50.6304266666667,-96.98077,4.0,5.6,270,991.51,8.3,99,14.15,0.0,1018.62,360.0
2018-09-18 05:50,50.6304233333333,-96.98077,4.1,5.4,271,991.53,8.2,99,14.15,0.0,1018.64,360.0
2018-09-18 06:00,50.6304216666667,-96.9807683333333,4.4,6.1,279,991.63,8.2,100,14.14,0.0,1018.74,203.5
2018-09-18 06:10,50.6304283333333,-96.9807666666667,4.8,6.7,286,991.72,8.1,100,14.14,0.0,1018.85,203.5
2018-09-18 06:20,50.6304183333333,-96.98078,3.6,5.8,294,991.60,8.0,99,14.14,0.0,1018.74,203.5
2018-09-18 06:30,50.63044,-96.9807683333333,3.8,5.4,284,991.56,7.9,99,14.14,0.0,1018.71,203.5
2018-09-18 06:40,50.630445,-96.98077,3.2,4.5,276,991.47,7.8,99,14.14,0.0,1018.63,203.5
2018-09-18 06:50,50.6304416666667,-96.98077,3.2,5.8,269,991.44,7.7,99,14.14,0.0,1018.60,203.5
2018-09-18 07:00,50.63044,-96.9807716666667,4.3,5.7,276,991.51,7.6,99,14.14,0.0,1018.68,131.7
2018-09-18 07:10,50.6304383333333,-96.98077,4.2,5.8,279,991.61,7.5,100,14.13,0.0,1018.78,131.7
2018-09-18 07:20,50.6304483333333,-96.9807766666667,4.3,5.4,277,991.68,7.3,100,14.13,0.0,1018.87,131.7
2018-09-18 07:30,50.6304433333333,-96.9807716666667,3.0,4.1,264,991.59,7.2,100,14.12,0.0,1018.78,131.7
2018-09-18 07:40,50.630435,-96.98078,2.8,3.8,244,991.48,7.2,100,14.12,0.0,1018.67,131.7
2018-09-18 07:50,50.6304566666667,-96.9807733333333,2.9,3.9,263,991.50,7.2,100,14.12,0.0,1018.69,131.7
2018-09-18 08:00,50.63045,-96.9807916666667,2.9,3.8,262,991.31,7.3,100,14.11,0.0,1018.50,287.7
2018-09-18 08:10,50.630445,-96.9807733333333,3.2,4.1,255,991.24,7.2,99,14.10,0.0,1018.43,287.7
2018-09-18 08:20,50.6304483333333,-96.9807766666667,3.0,4.1,263,991.30,7.3,100,14.09,0.0,1018.49,287.7
2018-09-18 08:30,50.6304433333333,-96.9807783333333,3.8,4.5,256,991.31,7.1,100,14.09,0.0,1018.52,287.7
2018-09-18 08:40,50.6304416666667,-96.9807766666667,3.4,4.2,256,991.21,6.9,100,14.09,0.0,1018.43,287.7
2018-09-18 08:50,50.63043,-96.9807716666667,3.3,4.1,245,991.28,6.8,100,14.08,0.0,1018.51,287.7
2018-09-18 09:00,50.6304383333333,-96.98077,2.9,4.0,249,991.29,6.8,100,14.08,0.0,1018.53,360.0
2018-09-18 09:10,50.63044,-96.9807716666667,2.9,4.0,252,991.27,6.8,100,14.08,0.0,1018.52,360.0
2018-09-18 09:20,50.6304383333333,-96.9807433333333,2.6,3.4,248,991.28,6.7,100,14.08,0.0,1018.53,360.0
2018-09-18 09:30,50.6304416666667,-96.9807583333333,2.2,3.2,241,991.36,6.8,100,14.08,0.0,1018.61,360.0
2018-09-18 09:40,50.6304416666667,-96.98076,2.1,3.0,235,991.37,6.8,100,14.07,0.0,1018.62,360.0
2018-09-18 09:50,50.6304416666667,-96.980765,2.2,3.0,229,991.36,6.7,100,14.05,0.0,1018.62,360.0
2018-09-18 10:00,50.630445,-96.9807683333333,2.2,2.9,232,991.37,6.6,100,14.04,0.0,1018.63,90.0
2018-09-18 10:10,50.6304433333333,-96.9807633333333,2.0,2.8,249,991.37,7.0,100,14.03,0.0,1018.62,90.0
2018-09-18 10:20,50.6304333333333,-96.9807683333333,2.7,3.7,246,991.37,7.2,100,14.04,0.0,1018.61,90.0
2018-09-18 10:30,50.6304333333333,-96.9807666666667,3.4,4.2,241,991.33,7.3,99,14.04,0.0,1018.58,90.0
2018-09-18 10:40,50.6304333333333,-96.9807666666667,3.3,4.4,239,991.31,7.3,99,14.03,0.0,1018.56,90.0
2018-09-18 10:50,50.630435,-96.980765,3.2,4.7,234,991.27,7.1,100,14.01,0.0,1018.53,90.0
2018-09-18 11:00,50.630435,-96.9807666666667,3.0,3.9,221,991.23,6.8,100,14.01,0.0,1018.50,137.0
2018-09-18 11:10,50.6304366666667,-96.980765,2.7,3.7,208,991.28,6.8,100,13.99,0.0,1018.56,137.0
2018-09-18 11:20,50.63045,-96.980775,2.1,3.5,208,991.24,6.7,100,13.99,0.0,1018.52,137.0
2018-09-18 11:30,50.6304433333333,-96.980775,2.5,4.2,224,991.32,6.7,100,13.99,0.0,1018.60,137.0
2018-09-18 11:40,50.6304416666667,-96.9807516666667,3.1,4.1,251,991.30,6.4,100,13.99,0.0,1018.61,137.0
2018-09-18 11:50,50.6304483333333,-96.9807683333333,3.2,4.3,242,991.26,6.1,100,13.99,0.0,1018.58,137.0
2018-09-18 12:00,50.6304466666667,-96.9807666666667,2.9,3.9,234,991.37,5.9,100,13.99,0.0,1018.69,38.0
2018-09-18 12:10,50.6304466666667,-96.9807633333333,2.3,3.5,203,991.30,5.7,100,13.97,0.0,1018.61,38.0
2018-09-18 12:20,50.630445,-96.980765,2.6,3.5,205,991.39,6.1,100,13.97,0.0,1018.68,38.0
2018-09-18 12:30,50.6304466666667,-96.9807666666667,2.2,3.3,212,991.54,6.1,100,13.96,0.0,1018.83,38.0
2018-09-18 12:40,50.6304466666667,-96.9807416666667,1.9,2.9,226,991.49,6.0,100,13.95,0.0,1018.80,38.0
2018-09-18 12:50,50.6304383333333,-96.9807783333333,2.3,3.1,231,991.52,6.0,100,13.94,0.0,1018.84,38.0
2018-09-18 13:00,50.6304366666667,-96.9807766666667,2.9,4.4,244,991.67,5.9,100,13.93,0.0,1018.99,228.3
2018-09-18 13:10,50.63045,-96.9807533333333,4.0,5.1,247,991.69,5.9,100,13.92,0.0,1019.02,228.3
2018-09-18 13:20,50.6304416666667,-96.9807466666667,4.3,5.4,237,991.75,5.9,100,13.92,0.0,1019.08,228.3
2018-09-18 13:30,50.6304383333333,-96.9807583333333,4.1,5.5,238,991.72,6.4,100,13.92,0.0,1019.04,228.3
2018-09-18 13:40,50.6304366666667,-96.9807616666667,4.6,5.9,232,991.82,7.0,100,13.91,0.0,1019.13,228.3
2018-09-18 13:50,50.6304366666667,-96.9807683333333,5.1,6.8,236,991.78,7.4,99,13.91,0.0,1019.08,228.3
2018-09-18 14:00,50.630435,-96.98077,5.4,7.5,237,991.81,7.8,99,13.91,0.0,1019.10,0.0
2018-09-18 14:10,50.6304333333333,-96.9807716666667,6.0,7.6,238,991.83,8.1,99,13.90,0.0,1019.09,0.0
2018-09-18 14:20,50.6304333333333,-96.9807733333333,5.3,7.0,227,991.79,8.5,99,13.91,0.0,1019.02,0.0
2018-09-18 14:30,50.630425,-96.9807666666667,5.0,7.0,236,991.59,9.0,99,13.91,0.0,1018.81,0.0
2018-09-18 14:40,50.6304133333333,-96.98075,5.0,6.5,234,991.53,9.4,99,13.89,0.0,1018.72,0.0
2018-09-18 14:50,50.6304133333333,-96.9807666666667,4.4,6.4,255,991.49,10.1,97,13.88,0.0,1018.65,0.0
2018-09-18 15:00,50.6304166666667,-96.9807616666667,4.9,6.6,257,991.47,10.7,92,13.89,0.0,1018.60,360.0
2018-09-18 15:10,50.63042,-96.9807616666667,5.4,8.0,262,991.59,11.2,88,13.87,0.0,1018.70,360.0
2018-09-18 15:20,50.6304216666667,-96.9807633333333,4.5,7.6,252,991.62,11.4,86,13.87,0.0,1018.70,360.0
2018-09-18 15:30,50.6304233333333,-96.9807666666667,4.5,7.4,257,991.59,11.8,80,13.87,0.0,1018.62,360.0
2018-09-18 15:40,50.630435,-96.980775,2.8,4.8,271,991.56,12.2,77,13.89,0.0,1018.55,360.0
2018-09-18 15:50,50.630445,-96.980785,0.8,4.3,252,991.60,12.6,75,13.97,0.0,1018.55,360.0
2018-09-18 16:00,50.6304466666667,-96.9807816666667,1.7,2.6,180,991.69,12.8,74,14.02,0.0,1018.61,323.4
2018-09-18 16:10,50.630445,-96.9807816666667,0.9,3.0,221,991.72,13.1,72,14.06,0.0,1018.61,323.4
2018-09-18 16:20,50.6304266666667,-96.9807866666667,3.2,6.3,274,991.71,13.0,72,14.06,0.0,1018.59,323.4
2018-09-18 16:30,50.6304333333333,-96.9807916666667,2.8,5.2,250,991.72,12.9,73,14.05,0.0,1018.58,323.4
2018-09-18 16:40,50.6304316666667,-96.9807883333333,3.7,6.2,255,991.70,12.9,74,14.05,0.0,1018.53,323.4
2018-09-18 16:50,50.6304333333333,-96.9807866666667,3.4,5.6,264,991.70,12.9,74,14.03,0.0,1018.50,323.4
2018-09-18 17:00,50.6304266666667,-96.980775,3.6,5.4,230,991.66,13.0,73,14.03,0.0,1018.44,194.5
2018-09-18 17:10,50.6304283333333,-96.98078,4.6,7.5,254,991.69,13.1,73,14.04,0.0,1018.45,194.5
2018-09-18 17:20,50.630445,-96.980765,3.9,7.2,269,991.66,13.2,73,14.05,0.0,1018.40,194.5
2018-09-18 17:30,50.6304483333333,-96.9807683333333,5.4,8.0,256,991.65,13.4,71,14.10,0.0,1018.36,194.5
2018-09-18 17:40,50.63043,-96.98077,3.5,8.6,287,991.58,13.9,65,14.17,0.0,1018.24,194.5
2018-09-18 17:50,50.6304366666667,-96.9807616666667,5.9,10.4,283,991.51,14.0,67,14.27,0.0,1018.15,194.5
2018-09-18 18:00,50.630435,-96.980765,4.6,7.8,245,991.53,13.7,65,14.35,0.0,1018.17,360.0
2018-09-18 18:10,50.63043,-96.9807733333333,6.7,10.3,266,991.53,13.8,67,14.36,0.0,1018.17,360.0
2018-09-18 18:20,50.6304466666667,-96.980775,5.5,8.3,265,991.54,13.8,67,14.35,0.0,1018.19,360.0
2018-09-18 18:30,50.6304166666667,-96.9807783333333,6.9,11.6,318,991.46,13.9,72,14.34,0.0,1018.10,360.0
2018-09-18 18:40,50.6304266666667,-96.9807733333333,7.4,11.8,325,991.41,13.4,77,14.38,0.0,1018.07,360.0
2018-09-18 18:50,50.6304283333333,-96.98077,7.3,11.0,328,991.37,13.5,76,14.41,0.0,1018.03,360.0
2018-09-18 19:00,50.63043,-96.98077,7.0,9.7,326,991.35,13.4,77,14.36,0.0,1018.00,152.6
2018-09-18 19:10,50.630445,-96.9807633333333,7.3,10.6,337,991.30,13.5,78,14.33,0.0,1017.95,152.6
2018-09-18 19:20,50.6304483333333,-96.9807716666667,7.3,10.1,347,991.24,13.4,80,14.40,0.0,1017.87,152.6
2018-09-18 19:30,50.6304483333333,-96.980775,7.1,10.9,349,991.13,13.4,79,14.44,0.0,1017.75,152.6
2018-09-18 19:40,50.6304466666667,-96.9807733333333,7.0,9.7,329,991.06,13.3,78,14.42,0.0,1017.67,152.6
2018-09-18 19:50,50.630445,-96.9807733333333,5.6,9.3,319,991.09,13.3,76,14.41,0.0,1017.71,152.6
2018-09-18 20:00,50.630465,-96.9808016666667,4.8,7.4,342,991.07,13.4,77,14.41,0.0,1017.68,338.3
2018-09-18 20:10,50.63045,-96.9807783333333,5.0,9.1,322,991.01,13.5,76,14.41,0.0,1017.62,338.3
2018-09-18 20:20,50.6304633333333,-96.9807833333333,6.2,10.6,303,990.95,13.4,76,14.37,0.0,1017.56,338.3
2018-09-18 20:30,50.6304466666667,-96.9807666666667,6.8,11.2,322,990.91,13.3,77,14.35,0.0,1017.54,338.3
2018-09-18 20:40,50.630445,-96.9807633333333,5.9,8.6,326,990.97,13.3,76,14.35,0.0,1017.59,338.3
2018-09-18 20:50,50.63044,-96.98076,5.8,9.4,323,990.90,13.5,74,14.35,0.0,1017.52,338.3
2018-09-18 21:00,50.63044,-96.9807616666667,6.9,9.6,341,990.84,13.5,75,14.35,0.0,1017.45,12.6
2018-09-18 21:10,50.63044,-96.980765,8.0,11.4,334,990.78,13.5,73,14.32,0.0,1017.40,12.6
2018-09-18 21:20,50.63042,-96.9807683333333,7.3,10.9,337,990.71,13.5,74,14.26,0.0,1017.33,12.6
2018-09-18 21:30,50.6304383333333,-96.980765,5.3,7.9,332,990.71,13.5,73,14.33,0.0,1017.34,12.6
2018-09-18 21:40,50.6304516666667,-96.9807766666667,5.7,9.4,336,990.66,13.7,72,14.30,0.0,1017.27,12.6
2018-09-18 21:50,50.63044,-96.98077,6.5,9.9,350,990.64,13.8,72,14.22,0.0,1017.24,12.6
2018-09-18 22:00,50.6304383333333,-96.98077,5.3,8.1,324,990.70,13.6,71,14.21,0.0,1017.31,360.0
2018-09-18 22:10,50.6304383333333,-96.9807683333333,5.6,9.1,321,990.71,13.5,70,14.19,0.0,1017.32,360.0
2018-09-18 22:20,50.6304366666667,-96.9807683333333,6.5,9.3,314,990.68,13.7,69,14.22,0.0,1017.30,360.0
2018-09-18 22:30,50.630435,-96.98077,6.3,10.5,320,990.66,13.9,69,14.29,0.0,1017.26,360.0
2018-09-18 22:40,50.6304333333333,-96.98077,7.3,9.4,346,990.55,13.7,72,14.27,0.0,1017.15,360.0
2018-09-18 22:50,50.6304333333333,-96.98077,6.7,9.4,322,990.47,13.4,71,14.34,0.0,1017.07,360.0
2018-09-18 23:00,50.6304333333333,-96.98077,5.4,7.8,316,990.48,13.8,68,14.40,0.0,1017.07,145.6
2018-09-18 23:10,50.6304333333333,-96.9807716666667,5.8,8.8,324,990.50,13.6,69,14.42,0.0,1017.10,145.6
2018-09-18 23:20,50.6304233333333,-96.9807783333333,7.4,10.6,331,990.42,13.5,69,14.41,0.0,1017.02,145.6
2018-09-18 23:30,50.6304483333333,-96.9807716666667,6.8,10.2,321,990.41,12.9,71,14.39,0.0,1017.04,145.6
